{"data":{"norad_id":68349,"intl_designator":"2026-059AE","name":"STARLINK-37183","alt_names":[],"object_type":"PAYLOAD","status":"ACTIVE","operator":null,"country":"US","launch_date":"2026-03-22","launch_site_code":"AFETR","launch_vehicle":null,"mission":null,"orbit_class":"UNKNOWN","rcs_meters":null,"size_class":null,"mass_kg":null,"dimensions":null,"purposes":["comms"],"wikipedia_slug":null,"has_3d_model":false,"image_url":null,"decayed_at":null,"tle_current":{"epoch":"2026-05-24T23:54:17.455104Z","epoch_age_seconds":85928,"freshness":"FRESH","line1":"1 68349U 26059AE  26144.99603536  .00018263  00000+0  62703-3 0  9990","line2":"2 68349  53.1584 353.4551 0000497 325.2502  34.8466 15.30210043  9866","mean_motion":15.30210043,"eccentricity":4.97e-5,"inclination_deg":53.1584,"raan_deg":353.4551,"arg_perigee_deg":325.2502,"mean_anomaly_deg":34.8466,"bstar":0.00062703,"rev_number":986,"period_min":94.104728078824,"perigee_km":474.84447288807,"apogee_km":475.52569310312,"semimajor_km":6853.3220829956,"source":"CELESTRAK","updated_at":"2026-05-25T13:38:21.927756Z"}}}